GW0774 Weather Reports


Display with metric or nautical units.
time (UTC)temp
F
wind
direction
speed
MPH
gust
MPH
rain 1hr
in
rain 24hr
in
rain mn
in
humidity
%
barometer
mb
20260903063535 57 261 6.0 11.0 0.00 0.00 0.00 88 1012.8
20260903063054 57 239 5.0 10.0 0.00 0.00 0.00 88 1012.7
20260903062537 57 44 4.0 9.0 0.00 0.00 0.00 88 1012.7
20260903062037 57 312 5.0 9.0 0.00 0.00 0.00 88 1012.6
20260903061601 57 239 4.0 14.0 0.00 0.00 0.00 88 1012.5
20260903061038 57 274 5.0 14.0 0.00 0.00 0.00 88 1012.5
20260903060538 58 238 4.0 10.0 0.00 0.00 0.00 88 1012.6
20260903060058 58 267 4.0 11.0 0.00 0.00 0.00 88 1012.7
20260903055539 58 250 5.0 11.0 0.00 0.00 0.00 87 1012.7
20260903055038 58 244 5.0 11.0 0.00 0.00 0.00 87 1012.8
20260903054557 58 251 5.0 10.0 0.00 0.00 0.00 86 1012.7
20260903054035 58 255 4.0 13.0 0.00 0.00 0.00 86 1012.7
20260903053539 58 256 6.0 13.0 0.00 0.00 0.00 85 1012.7
20260903053107 58 261 5.0 12.0 0.00 0.00 0.00 85 1012.7
20260903052539 58 237 7.0 13.0 0.00 0.00 0.00 84 1012.7
20260903052042 58 254 6.0 13.0 0.00 0.00 0.00 84 1012.7
20260903051554 58 265 8.0 13.0 0.00 0.00 0.00 84 1012.7
20260903051038 58 259 8.0 13.0 0.00 0.00 0.00 83 1012.8
20260903050541 58 247 8.0 12.0 0.00 0.00 0.00 83 1012.7
20260903045539 59 257 7.0 15.0 0.00 0.00 0.00 83 1013.0
20260903045041 59 245 8.0 15.0 0.00 0.00 0.00 82 1013.0
20260903044603 59 252 8.0 14.0 0.00 0.00 0.00 82 1013.0
20260903044038 59 247 8.0 14.0 0.00 0.00 0.00 83 1013.0
20260903043539 58 253 9.0 14.0 0.00 0.00 0.00 82 1013.1
20260903043049 58 253 9.0 14.0 0.00 0.00 0.00 82 1013.1
20260903042539 58 252 10.0 16.0 0.00 0.00 0.00 81 1013.1
20260903042039 59 284 12.0 18.0 0.00 0.00 0.00 81 1013.0
20260903041548 59 249 12.0 18.0 0.00 0.00 0.00 79 1013.0
20260903041039 59 240 11.0 17.0 0.00 0.00 0.00 78 1013.1
20260903040539 60 261 12.0 17.0 0.00 0.00 0.00 76 1013.1
20260903040100 60 267 12.0 17.0 0.00 0.00 0.00 75 1013.1
20260903035538 60 244 10.0 19.0 0.00 0.00 0.00 76 1013.2
20260903035039 60 267 11.0 19.0 0.00 0.00 0.00 77 1013.2
20260903034553 60 262 12.0 18.0 0.00 0.00 0.00 76 1013.1
20260903034038 60 250 12.0 18.0 0.00 0.00 0.00 76 1013.1
20260903033543 60 251 12.0 19.0 0.00 0.00 0.00 76 1013.2
20260903033107 60 263 11.0 19.0 0.00 0.00 0.00 77 1013.3
20260903032539 60 237 11.0 19.0 0.00 0.00 0.00 77 1013.4
20260903032038 60 259 13.0 19.0 0.00 0.00 0.00 78 1013.3
20260903031558 60 249 11.0 19.0 0.00 0.00 0.00 78 1013.4
20260903031039 60 260 14.0 19.0 0.00 0.00 0.00 78 1013.4
20260903030539 60 238 13.0 18.0 0.00 0.00 0.00 78 1013.4
20260903030057 60 227 12.0 18.0 0.00 0.00 0.00 78 1013.4
20260903025538 60 259 13.0 22.0 0.00 0.00 0.00 78 1013.3
20260903025038 60 246 12.0 22.0 0.00 0.00 0.00 79 1013.6
20260903024550 60 256 12.0 18.0 0.00 0.00 0.00 80 1013.6
20260903024038 60 242 11.0 17.0 0.00 0.00 0.00 80 1013.5
20260903023540 60 234 12.0 17.0 0.00 0.00 0.00 81 1013.7
20260903023057 61 259 11.0 17.0 0.00 0.00 0.00 81 1013.7
20260903022539 61 242 11.0 17.0 0.00 0.00 0.00 81 1013.7
20260903022039 61 252 11.0 18.0 0.00 0.00 0.00 81 1013.7
20260903021607 60 248 13.0 19.0 0.00 0.00 0.00 80 1013.8
20260903021038 60 262 12.0 20.0 0.00 0.00 0.00 80 1013.8
20260903020539 60 256 13.0 21.0 0.00 0.00 0.00 81 1013.9
20260903020058 60 253 14.0 21.0 0.00 0.00 0.00 79 1013.8
20260903015537 60 299 13.0 21.0 0.00 0.00 0.00 79 1013.9
20260903015038 60 240 13.0 26.0 0.00 0.00 0.00 80 1014.0
20260903014551 60 252 14.0 26.0 0.00 0.00 0.00 80 1014.0
20260903014039 60 241 13.0 22.0 0.00 0.00 0.00 80 1014.1
20260903013539 60 261 12.0 22.0 0.00 0.00 0.00 79 1014.0
20260903013105 61 234 11.0 20.0 0.00 0.00 0.00 78 1014.2
20260903012539 61 257 12.0 20.0 0.00 0.00 0.00 79 1014.3
20260903012039 61 221 11.0 19.0 0.00 0.00 0.00 77 1014.4
20260903011606 60 250 10.0 22.0 0.00 0.00 0.00 78 1014.4
20260903011039 60 238 14.0 22.0 0.00 0.00 0.00 77 1014.4
20260903010539 60 310 9.0 21.0 0.00 0.00 0.00 77 1014.5
20260903010110 60 241 11.0 19.0 0.00 0.00 0.00 77 1014.7
20260903005541 60 230 11.0 19.0 0.00 0.00 0.00 78 1014.9
20260903005039 60 246 11.0 20.0 0.00 0.00 0.00 77 1014.8
20260903004557 60 253 11.0 20.0 0.00 0.00 0.00 79 1015.0
20260903004039 60 258 11.0 22.0 0.00 0.00 0.00 79 1015.0
20260903003539 60 237 10.0 22.0 0.00 0.00 0.00 79 1015.1
20260903003114 60 259 10.0 20.0 0.00 0.00 0.00 79 1015.0
20260903002539 59 250 10.0 20.0 0.00 0.00 0.00 79 1015.1
20260903002039 60 260 12.0 20.0 0.00 0.00 0.00 80 1015.0
20260903001602 60 265 10.0 21.0 0.00 0.00 0.00 79 1015.2
20260903001038 60 282 9.0 23.0 0.00 0.00 0.00 81 1015.2
20260903000538 60 277 16.0 23.0 0.00 0.00 0.00 78 1015.2
20260903000104 60 286 10.0 21.0 0.00 0.00 0.00 79 1015.2
20260902235538 61 311 9.0 24.0 0.00 0.00 0.00 82 1015.2
20260902235040 60 234 11.0 24.0 0.00 0.00 0.00 80 1015.3
20260902234555 60 311 14.0 24.0 0.00 0.00 0.00 81 1015.3
20260902234038 60 300 12.0 22.0 0.00 0.00 0.00 81 1015.4
20260902233539 59 278 13.0 22.0 0.00 0.00 0.00 82 1015.3
20260902233059 59 259 11.0 18.0 0.00 0.00 0.00 81 1015.4
20260902232540 60 239 10.0 21.0 0.00 0.00 0.00 82 1015.5
20260902232039 60 288 11.0 21.0 0.00 0.00 0.00 82 1015.3
20260902231559 60 241 10.0 19.0 0.00 0.00 0.00 82 1015.3
20260902231043 59 273 8.0 22.0 0.00 0.00 0.00 82 1015.3
20260902230544 60 284 13.0 22.0 0.00 0.00 0.00 82 1015.4
20260902230058 59 293 11.0 21.0 0.00 0.00 0.00 84 1015.7
20260902225540 59 266 13.0 21.0 0.00 0.00 0.00 81 1015.8
20260902225039 59 279 11.0 17.0 0.00 0.00 0.00 83 1015.7
20260902224557 59 290 12.0 24.0 0.00 0.00 0.00 83 1015.6
20260902224039 59 289 14.0 24.0 0.00 0.00 0.00 83 1015.7
20260902223541 59 313 12.0 21.0 0.00 0.00 0.00 82 1015.7
20260902223055 59 254 12.0 23.0 0.00 0.00 0.00 82 1015.7
20260902222541 59 270 15.0 23.0 0.00 0.00 0.00 82 1015.7
20260902222043 59 241 11.0 24.0 0.00 0.00 0.00 83 1015.7
20260902221617 58 279 13.0 25.0 0.00 0.00 0.00 84 1015.6
20260902221040 58 271 15.0 25.0 0.00 0.00 0.00 83 1015.6
20260902220540 58 246 13.0 20.0 0.00 0.00 0.00 83 1015.6
20260902220058 58 304 13.0 20.0 0.00 0.00 0.00 84 1015.8
20260902215537 58 276 13.0 21.0 0.00 0.00 0.00 84 1015.8
20260902215043 58 250 11.0 21.0 0.00 0.00 0.00 84 1015.6
20260902214557 57 290 11.0 21.0 0.00 0.00 0.00 85 1015.5
20260902214039 57 271 12.0 20.0 0.00 0.00 0.00 85 1015.6
20260902213535 56 286 12.0 20.0 0.00 0.00 0.00 85 1015.6
20260902213053 56 276 14.0 20.0 0.00 0.00 0.00 85 1015.7
20260902212537 56 269 10.0 19.0 0.00 0.00 0.00 85 1015.7
20260902212035 56 288 11.0 19.0 0.00 0.00 0.00 85 1015.8
20260902211612 56 287 9.0 15.0 0.00 0.00 0.00 85 1015.8
20260902211037 56 270 9.0 15.0 0.00 0.00 0.00 85 1015.8
20260902210537 56 279 8.0 15.0 0.00 0.00 0.00 85 1015.8
20260902210100 55 271 7.0 14.0 0.00 0.00 0.00 85 1015.8
20260902205539 55 274 7.0 14.0 0.00 0.00 0.00 86 1015.9
20260902205036 55 283 8.0 15.0 0.00 0.00 0.00 85 1015.7
20260902204555 55 260 8.0 15.0 0.00 0.00 0.00 85 1015.7
20260902204039 55 275 7.0 17.0 0.00 0.00 0.00 85 1015.8
20260902203536 54 273 7.0 17.0 0.00 0.00 0.00 85 1015.8
20260902203051 54 269 8.0 14.0 0.00 0.00 0.00 85 1015.7
20260902202536 54 291 8.0 14.0 0.00 0.00 0.00 86 1015.7
20260902202037 53 265 7.0 11.0 0.00 0.00 0.00 86 1015.7
20260902201609 53 290 7.0 11.0 0.00 0.00 0.00 86 1015.6
20260902201035 53 281 6.0 10.0 0.00 0.00 0.00 86 1015.7
20260902200536 53 257 6.0 10.0 0.00 0.00 0.00 86 1015.6
20260902200104 53 277 4.0 9.0 0.00 0.00 0.00 86 1015.8
20260902195539 53 265 4.0 11.0 0.00 0.00 0.00 86 1015.7
20260902195036 53 269 4.0 11.0 0.00 0.00 0.00 86 1015.6
20260902194556 53 260 5.0 11.0 0.00 0.00 0.00 87 1015.6
20260902194038 53 266 2.0 6.0 0.00 0.00 0.00 87 1015.5
20260902193539 53 249 2.0 6.0 0.00 0.00 0.00 87 1015.6
20260902193051 53 244 2.0 6.0 0.00 0.00 0.00 87 1015.5
20260902192538 53 257 1.0 9.0 0.00 0.00 0.00 87 1015.5
20260902192040 53 290 3.0 9.0 0.00 0.00 0.00 87 1015.4
20260902191549 53 273 2.0 10.0 0.00 0.00 0.00 87 1015.3
20260902191037 53 300 2.0 14.0 0.00 0.00 0.00 87 1015.2
20260902190535 53 258 4.0 14.0 0.00 0.00 0.00 87 1015.2
20260902190057 53 46 8.0 14.0 0.00 0.00 0.00 87 1015.0
20260902185536 53 327 9.0 17.0 0.00 0.00 0.00 87 1014.9
20260902185038 53 304 10.0 17.0 0.00 0.00 0.00 87 1014.7
20260902184557 53 273 9.0 15.0 0.00 0.00 0.00 87 1014.8
20260902184036 53 263 9.0 15.0 0.00 0.00 0.00 87 1014.9
20260902183536 53 290 8.0 14.0 0.00 0.00 0.00 87 1014.9
20260902183057 53 282 6.0 15.0 0.00 0.00 0.00 87 1014.8
20260902182535 53 262 8.0 15.0 0.00 0.00 0.00 88 1014.8
20260902182103 53 280 10.0 14.0 0.00 0.00 0.00 88 1014.8
20260902181614 53 277 8.0 12.0 0.00 0.00 0.00 89 1014.8
20260902181035 53 277 8.0 13.0 0.00 0.00 0.00 89 1014.7
20260902180536 54 269 9.0 14.0 0.00 0.00 0.00 89 1014.9
20260902175538 54 263 7.0 16.0 0.00 0.00 0.00 90 1015.0
20260902175044 54 279 10.0 16.0 0.00 0.00 0.00 90 1014.9
20260902174554 54 290 10.0 16.0 0.00 0.00 0.00 90 1015.0
20260902174036 54 273 9.0 16.0 0.00 0.00 0.00 90 1014.9
20260902173536 55 269 10.0 19.0 0.00 0.00 0.00 90 1015.0
20260902173101 55 264 10.0 19.0 0.00 0.00 0.00 90 1015.0
20260902172541 55 272 10.0 17.0 0.00 0.00 0.00 90 1015.0
20260902172035 55 261 10.0 17.0 0.00 0.00 0.00 90 1015.0
20260902171609 55 280 9.0 16.0 0.00 0.00 0.00 90 1014.9
20260902171036 55 265 9.0 16.0 0.00 0.00 0.00 90 1014.9
20260902170536 55 287 11.0 17.0 0.00 0.00 0.00 90 1015.1
20260902170051 54 271 10.0 17.0 0.00 0.00 0.00 90 1015.1
20260902165540 54 277 10.0 17.0 0.00 0.00 0.00 90 1015.0
20260902165036 54 265 10.0 15.0 0.00 0.00 0.00 90 1014.7
20260902164557 54 277 9.0 16.0 0.00 0.00 0.00 89 1014.9
20260902164040 54 273 10.0 16.0 0.00 0.00 0.00 89 1014.7
20260902163538 54 299 10.0 16.0 0.00 0.00 0.00 89 1014.7
20260902163057 54 288 9.0 15.0 0.00 0.00 0.00 89 1014.9
20260902162537 54 277 7.0 17.0 0.00 0.00 0.00 89 1015.0
20260902162036 54 300 7.0 17.0 0.00 0.00 0.00 89 1015.0
20260902161600 54 271 10.0 17.0 0.00 0.00 0.00 89 1014.7
20260902161042 55 273 8.0 16.0 0.00 0.00 0.00 89 1014.6
20260902160543 55 300 10.0 20.0 0.00 0.00 0.00 90 1014.5
20260902160049 55 299 12.0 20.0 0.00 0.00 0.00 90 1014.4
20260902155539 55 288 12.0 19.0 0.00 0.00 0.00 89 1014.3
20260902155036 55 271 12.0 19.0 0.00 0.00 0.00 89 1014.3
20260902154611 55 266 11.0 17.0 0.00 0.00 0.00 89 1014.2
20260902154035 55 263 9.0 19.0 0.00 0.00 0.00 89 1014.2
20260902153539 55 292 11.0 19.0 0.00 0.00 0.00 89 1014.3
20260902153059 55 250 11.0 16.0 0.00 0.00 0.00 89 1014.3
20260902152539 55 265 10.0 15.0 0.00 0.00 0.00 89 1014.2
20260902152039 55 265 8.0 16.0 0.00 0.00 0.00 89 1014.3
20260902151555 55 263 8.0 16.0 0.00 0.00 0.00 89 1014.3
20260902151036 55 286 9.0 16.0 0.00 0.00 0.00 89 1014.4
20260902150539 55 236 8.0 15.0 0.00 0.00 0.00 89 1014.3
20260902150051 55 248 8.0 16.0 0.00 0.00 0.00 89 1014.3
20260902145539 55 259 7.0 20.0 0.00 0.00 0.00 89 1014.3
20260902145035 55 255 11.0 20.0 0.00 0.00 0.00 89 1014.3
20260902144558 55 305 14.0 20.0 0.00 0.00 0.00 89 1014.2
20260902144036 55 292 13.0 20.0 0.00 0.00 0.00 89 1014.2
20260902143539 55 273 12.0 20.0 0.00 0.00 0.00 89 1014.2
20260902143058 55 269 13.0 20.0 0.00 0.00 0.00 89 1014.3
20260902142536 55 269 11.0 17.0 0.00 0.00 0.00 89 1014.4
20260902142036 55 263 11.0 16.0 0.00 0.00 0.00 89 1014.6
20260902141550 55 261 10.0 14.0 0.00 0.00 0.00 89 1014.7
20260902141038 55 249 7.0 17.0 0.00 0.00 0.00 89 1014.7
20260902140540 55 279 8.0 17.0 0.00 0.00 0.00 89 1014.8
20260902140048 55 279 10.0 17.0 0.00 0.00 0.00 89 1014.6
20260902135535 54 279 10.0 18.0 0.00 0.00 0.00 89 1014.5
20260902135036 54 291 10.0 19.0 0.00 0.00 0.00 89 1014.5
20260902134547 54 289 12.0 21.0 0.00 0.00 0.00 89 1014.5
20260902134038 54 283 12.0 23.0 0.00 0.00 0.00 89 1014.3
20260902133536 54 283 14.0 23.0 0.00 0.00 0.00 89 1014.4
20260902133102 54 288 13.0 24.0 0.00 0.00 0.00 89 1014.3
20260902132536 54 309 13.0 24.0 0.00 0.00 0.00 89 1014.1
20260902132036 54 270 14.0 24.0 0.00 0.00 0.00 89 1014.0
20260902131552 54 279 8.0 16.0 0.00 0.00 0.00 89 1014.2
20260902131044 54 259 8.0 19.0 0.00 0.00 0.00 89 1014.3
20260902130541 54 277 11.0 21.0 0.00 0.00 0.00 90 1014.0
20260902130058 54 270 10.0 21.0 0.00 0.00 0.00 90 1013.8
20260902125540 54 279 11.0 19.0 0.00 0.00 0.00 90 1013.6
20260902125039 54 299 12.0 19.0 0.00 0.00 0.00 90 1013.6
20260902124605 54 241 10.0 18.0 0.00 0.00 0.00 90 1013.7
20260902124038 54 278 10.0 19.0 0.00 0.00 0.00 90 1013.7
20260902123538 54 262 10.0 19.0 0.00 0.00 0.00 90 1013.7
20260902123053 54 273 9.0 15.0 0.00 0.00 0.00 90 1013.8
20260902122539 54 264 9.0 15.0 0.00 0.00 0.00 90 1014.0
20260902122039 54 268 8.0 14.0 0.00 0.00 0.00 91 1014.0
20260902121550 54 240 6.0 13.0 0.00 0.00 0.00 91 1014.1
20260902121039 54 274 6.0 13.0 0.00 0.00 0.00 91 1014.1
20260902120539 54 293 7.0 13.0 0.00 0.00 0.00 90 1014.3
20260902120059 54 295 7.0 14.0 0.00 0.00 0.00 90 1014.3
20260902115538 54 315 8.0 15.0 0.00 0.00 0.00 90 1014.3
20260902115040 54 271 8.0 15.0 0.00 0.00 0.00 90 1014.4
20260902114557 54 268 8.0 16.0 0.00 0.00 0.00 90 1014.4
20260902114038 54 273 9.0 17.0 0.00 0.00 0.00 90 1014.3
20260902113538 54 284 11.0 26.0 0.00 0.00 0.00 90 1014.2
20260902113055 54 252 11.0 26.0 0.00 0.00 0.00 90 1014.2
20260902112541 54 339 16.0 26.0 0.00 0.00 0.00 90 1014.1
20260902112037 54 273 9.0 19.0 0.00 0.00 0.00 90 1013.9
20260902111559 54 273 10.0 17.0 0.00 0.00 0.00 90 1014.1
20260902111040 54 286 9.0 20.0 0.00 0.00 0.00 89 1014.1
20260902110540 55 290 11.0 20.0 0.00 0.00 0.00 89 1014.2
20260902110046 55 275 10.0 20.0 0.00 0.00 0.00 89 1014.1
20260902105538 55 272 9.0 18.0 0.00 0.00 0.00 89 1014.3
20260902105043 55 272 9.0 15.0 0.00 0.00 0.00 89 1014.4
20260902104557 55 308 10.0 15.0 0.00 0.00 0.00 89 1014.4
20260902104038 55 280 8.0 15.0 0.00 0.00 0.00 90 1014.4
20260902103541 55 276 8.0 13.0 0.00 0.00 0.00 90 1014.4
20260902103100 55 291 7.0 13.0 0.00 0.00 0.00 90 1014.5
20260902102539 55 274 7.0 14.0 0.00 0.00 0.00 90 1014.6
20260902102040 55 267 8.0 14.0 0.00 0.00 0.00 91 1014.9
20260902101556 54 269 7.0 14.0 0.00 0.00 0.00 91 1015.0
20260902101039 54 308 6.0 11.0 0.00 0.00 0.00 91 1015.0
20260902100539 54 281 4.0 11.0 0.00 0.00 0.00 91 1015.0
20260902100048 54 290 3.0 7.0 0.00 0.00 0.00 91 1015.0
20260902095539 54 261 3.0 8.0 0.00 0.00 0.00 90 1014.8
20260902095038 54 270 3.0 8.0 0.00 0.00 0.00 90 1014.9
20260902094557 54 271 5.0 11.0 0.00 0.00 0.00 90 1014.8
20260902094036 54 296 4.0 11.0 0.00 0.00 0.00 90 1014.7
20260902093536 54 303 5.0 11.0 0.00 0.00 0.00 91 1015.1
20260902093125 54 263 3.0 8.0 0.00 0.00 0.00 91 1015.1
20260902092539 54 270 3.0 8.0 0.00 0.00 0.00 91 1015.1
20260902092041 54 252 4.0 9.0 0.00 0.00 0.00 91 1015.1
20260902091600 54 53 3.0 9.0 0.00 0.00 0.00 91 1015.0
20260902091040 54 264 3.0 8.0 0.00 0.00 0.00 91 1014.8
20260902090539 53 281 2.0 4.0 0.00 0.00 0.00 91 1014.7
20260902090101 54 290 1.0 4.0 0.00 0.00 0.00 91 1015.0
20260902085538 54 277 2.0 6.0 0.00 0.00 0.00 90 1015.1
20260902085038 54 273 3.0 6.0 0.00 0.00 0.00 90 1015.3
20260902084559 54 273 2.0 6.0 0.00 0.00 0.00 90 1015.1
20260902084039 54 254 2.0 9.0 0.00 0.00 0.00 90 1015.1
20260902083535 54 260 2.0 9.0 0.00 0.00 0.00 89 1015.0
20260902083056 54 279 3.0 9.0 0.00 0.00 0.00 89 1015.1
20260902082535 54 277 4.0 9.0 0.00 0.00 0.00 89 1015.2
20260902082038 55 261 5.0 9.0 0.00 0.00 0.00 88 1015.2
20260902081610 55 268 2.0 18.0 0.00 0.00 0.00 88 1015.1
20260902081039 55 272 8.0 19.0 0.00 0.00 0.00 87 1015.1
20260902080539 55 298 13.0 19.0 0.00 0.00 0.00 87 1015.0
20260902080049 55 254 11.0 19.0 0.00 0.00 0.00 88 1015.0
20260902075538 55 302 11.0 19.0 0.00 0.00 0.00 88 1014.8
20260902075039 55 330 9.0 16.0 0.00 0.00 0.00 87 1014.8
20260902074559 55 288 9.0 16.0 0.00 0.00 0.00 87 1014.8
20260902074039 55 277 7.0 14.0 0.00 0.00 0.00 87 1014.7
20260902073538 55 279 7.0 14.0 0.00 0.00 0.00 87 1014.9
20260902073055 55 296 8.0 14.0 0.00 0.00 0.00 87 1014.8
20260902072539 55 275 10.0 16.0 0.00 0.00 0.00 86 1014.9
20260902072035 55 313 9.0 16.0 0.00 0.00 0.00 86 1015.0
20260902071601 55 294 9.0 16.0 0.00 0.00 0.00 86 1014.9
20260902071038 55 298 8.0 16.0 0.00 0.00 0.00 86 1015.0
20260902070538 55 267 9.0 17.0 0.00 0.00 0.00 86 1015.0
20260902070051 55 268 6.0 17.0 0.00 0.00 0.00 86 1015.0
20260902065539 55 282 8.0 17.0 0.00 0.00 0.00 86 1015.0
20260902065039 55 257 9.0 17.0 0.00 0.00 0.00 86 1014.8
20260902064558 55 280 10.0 21.0 0.00 0.00 0.00 86 1014.8
20260902064039 55 273 11.0 21.0 0.00 0.00 0.00 87 1014.8